Showing default

BRO-12, 59108

Orbit data source: Space-Track

BRO-12, 59108 is a payload satellite owned by Unseen Labs (FR) in SSO that was launched on Mon, 04 Mar 2024 UTC via an FALCON 9 launch vehicle from the Air Force Western Test Range (AFWTR). Payload-class satellites include a variety of spacecraft equipped with specific instruments for various scientific and technological missions. These include communications satellites like Starlink; space stations such as the ISS; scientific satellites like the Hubble; Earth observation satellites from companies like Planet Labs, Umbra, and HawkEye 360; GPS; miniature CubeSats for education and research; and military/defense satellites.

Loading next visibility...
Identifier
59108, 2024-043L
Orbit
SSO
Country
Flag of FRFR
Related business
Manufacturer
GOMSpace
Mission
Operational Commercial Sigint
Bus & Motor
CUBESAT 8U, Unknown motor
Mass
15 kg wet, ~15 kg dry
Launch date (UTC)
2024-03-04 (2 years ago)
Launch vehicle
FALCON 9
Launch site
Air Force Western Test Range (AFWTR)
Object type
Payload
Rocket body
Debris
Shape & HBR
Box, 0.2 m
Radar Cross Section
0.100 m², Medium (>0.1 m² and < 1m²)

Expand to show TLE details & history
Last TLE update: 14 hours ago

TLE from 14 hours ago
0 BRO-12
1 59108U 24043L   25353.29715449  .00001819  00000-0  16672-3 0  9999
2 59108  97.8254 119.2373 0007447 226.3152 133.7452 14.96166142 97730
Epoch: 2025-12-19T07:07Z
TLE epoch observation values (Epoch: 2025-12-19T07:07:54.147Z)
Latitude
-0.0001°
Longitude
-75.87863°
Altitude
585.386 km
Speed
7.566 km/s
True Right ascension
07h 56m 56s
True Declination
0° 00' 00"
Sunlit
Object was in full shadow at epoch
Visualization orbit readout
Latitude
Unknown
Longitude
Unknown
Altitude
Unknown
Speed
Unknown
Apparent Right ascension
Unknown
Apparent Declination
Unknown
Sunlit
N/A
Visualization observer readout
Local Sidereal Time
19:32:16
Azimuth
Unknown
Elevation
Unknown
Doppler factor
Unknown
Orbital elements
Apogee altitude
580.95 km
Perigee altitude
570.593 km
Semi-major axis
6,953.908 km
Eccentricity
0.00074
Inclination
97.8254°
RAAN
119.2373°
Arg. of periapsis
226.3152°
True anomaly
133.80681°
Mean anomaly
133.7452°
Eccentric anomaly
133.77601°
Mean motion
3.74283 °/min
Orbital period
96.18 mins
BSTAR
0.00016672
Loading maneuver chart data...
Computing Atmospheric mass density...
Loading historical data...
Loading historical data...
Loading historical data...
Loading historical data...
Loading historical data...
Loading historical data...
Loading historical data...

Documentation

Showing up to 5 results
|